Location: Brienzwiler
(46.7508°N, 8.1014°E)
Time: 07:45:59
(UTC+00:00)

Cosmos 2058 - Pass Details

Date: 05 July 2020
Orbit: 561 x 584 km, 82.5° (Epoch: 05 August)

Event Time Altitude Azimuth Distance (km) Brightness Sun altitude
Exits shadow 21:24:59 25° 134° (SE) 1,173 3.9 -14.8°
Maximum altitude 21:26:34 34° 92° (E) 953 3.7 -15.0°
Drops below altitude 10° 21:30:20 10° 26° (NNE) 1,887 6.0 -15.3°
Sets 21:32:39 0° 18° (NNE) 2,786 7.1 -15.5°
